Regional Weather Roundup
Issued by NWS

Home | Current Version | Previous Version | Text Only | Print | Product List | Glossary Off
Versions: 1 2 3 4 5 6 7 8 9 10 11 12 13 14 15 16 17 18 19 20 21 22 23 24 25 26 27 28 29 30 31 32 33 34 35 36 37 38 39 40 41 42 43

000
ASUS45 KBOU 221107
RWRCO

WEATHER ROUNDUP FOR COLORADO
NATIONAL WEATHER SERVICE DENVER/BOULDER CO
500 AM MDT WED OCT 22 2014

NOTE: "FAIR" INDICATES FEW OR NO CLOUDS BELOW 12000 FEET WITH NO
SIGNIFICANT WEATHER AND/OR OBSTRUCTIONS TO VISIBILITY.

COZ001>005-013-030-031-221200-
...NORTHWEST COLORADO...

CITY           SKY/WX    TMP DP  RH WIND       PRES   REMARKS
CRAIG          MOCLDY    41  37  86 S6        30.14R
HAYDEN         MOCLDY    41  36  81 E8        30.14R
MEEKER         CLOUDY    43  38  82 MISG      30.14R
MOUNT WERNER   NOT AVBL
STEAMBOAT SPGS MOCLDY    38  37  94 CALM      30.16R
WALDEN         CLOUDY    36  32  87 S10       30.16R
$$

COZ006>008-011-221200-
...WEST CENTRAL VALLEYS...

CITY           SKY/WX    TMP DP  RH WIND       PRES   REMARKS
GRAND JUNCTION MOCLDY    42  40  92 CALM      30.07R
MONTROSE       CLOUDY    46  41  82 SE5       30.14R
EAGLE          CLOUDY    45  43  93 E5        30.20R
RIFLE          PTCLDY    45  43  93 CALM      30.13S
DELTA          MOCLDY    51  47  86 NE6       30.11R
NUCLA          PTCLDY    43  37  81 SE7       30.15R
$$

COZ017>023-064>068-221200-
...SOUTHWEST COLORADO...

CITY           SKY/WX    TMP DP  RH WIND       PRES   REMARKS
DURANGO        CLEAR     40  38  93 N3        30.16S
CORTEZ         CLEAR     39  37  92 CALM      30.12R
PAGOSA SPRINGS CLEAR     40  40 100 CALM      30.21S
TELLURIDE      MOCLDY    41  35  79 SE5       30.26S
WOLF CREEK PAS CLOUDY    32  32 100 SW18G25     N/A  VSB<1/4 WCI  20
$$

COZ009-010-012-014-032>034-037-058>063-221200-
...CENTRAL COLORADO...

CITY           SKY/WX    TMP DP  RH WIND       PRES   REMARKS
ASPEN          LGT RAIN  37  35  92 S6        30.23S
BUENA VISTA    MOCLDY    38  34  84 NW8       30.19R
COPPER MTN     CLOUDY    34  30  86 W20       30.33S VSB 1/4 WCI  22
BERTHOUD PASS  SNOW      27  23  86 MISG      30.31R VSB 1/4
COTTONWOOD PAS RAIN      41  34  75 W9        30.25R
GUNNISON       MOCLDY    37  32  81 S5        30.23R
KREMMLING      CLOUDY    41  34  75 CALM        N/A
LEADVILLE      LGT SNOW  32  32 100 NE3       30.25F FOG
MONARCH PASS   FOG       32  32 100 MISG      30.39R VSB<1/4
SALIDA         MOCLDY    43  38  83 N6        30.24R
SUNLIGHT       MOCLDY    34  34 100 CALM      30.29F THUNDER
WILKERSON PASS NOT AVBL
$$

COZ069>075-221200-
...SAN LUIS VALLEY/SANGRE DE CRISTO MOUNTAINS...

CITY           SKY/WX    TMP DP  RH WIND       PRES   REMARKS
ALAMOSA        CLEAR     32  29  88 CALM      30.17R
LA VETA PASS   MOCLDY    36  32  87 S16G24    30.24F
SAGUACHE       PTCLDY    36  34  93 NW10      30.20R
$$

COZ035-036-038>040-221200-
...NORTHERN COLORADO FRONT RANGE...

CITY           SKY/WX    TMP DP  RH WIND       PRES   REMARKS
DENVER INTL AP MOCLDY    48  43  82 SW6       30.05R
DMNS CITY PARK   N/A     49  42  78 SE2       30.05R
AURORA         PTCLDY    48  42  80 W5        30.07R
FRONT RANGE AP NOT AVBL
ERIE MUNI ARPT PTCLDY    44  42  89 S6        30.03R
BOULDER MUN AP CLEAR     50  39  66 S7        30.02R
CENTENNIAL     PTCLDY    48  42  80 W3        30.07R
BROOMFIELD     PTCLDY    54  39  58 CALM      30.06R
FORT COLLINS   PTCLDY    48  41  76 S10       30.01F
LONGMONT       PTCLDY    47  41  79 SE5       30.03S
$$

COZ041-046-047-076>085-087-088-221200-
...PIKES PEAK/PALMER DIVIDE AND SOUTHERN FOOTHILLS...

CITY           SKY/WX    TMP DP  RH WIND       PRES   REMARKS
COLO. SPRINGS  PTCLDY    50  36  58 N9        30.07R
A. F. ACADEMY  PTCLDY    50  35  55 NW6       30.09R
ELLICOTT       PTCLDY    49  40  71 NW7       30.05R
FALCON         PTCLDY    47  37  66 NW6       30.10R
FORT CARSON    PTCLDY    48  39  70 SW8       30.05R
LIMON          CLEAR     48  41  76 N5        30.02R
MONUMENT HILL  PTCLDY    41  36  81 W9        30.10R
TRINIDAD       PTCLDY    53  43  68 W14       30.03R
$$

COZ042>045-048>051-090-091-221200-
...NORTHEAST COLORADO...

CITY           SKY/WX    TMP DP  RH WIND       PRES   REMARKS
GREELEY ARPT   PTCLDY    46  37  71 CALM      30.01R
AKRON          CLOUDY    52  44  74 N8        29.97S
BURLINGTON     MOCLDY    54  45  71 NW9       29.97S
WRAY           CLOUDY    56  48  76 NW10      29.94S
STERLING       LGT RAIN  54  50  87 E3        29.95R
HOLYOKE        MOCLDY    55  45  67 NW7       29.96R
FORT MORGAN    CLOUDY    54  44  69 N9        29.99R
$$

COZ086-089-092>099-221200-
...SOUTHEAST COLORADO...

CITY           SKY/WX    TMP DP  RH WIND       PRES   REMARKS
PUEBLO         MOCLDY    49  40  71 SW6       30.01R
LA JUNTA       MOCLDY    53  43  68 W10       29.96R
LAMAR          MOCLDY    58  49  72 W7        29.92R
SPRINGFIELD      N/A     55  52  89 S16       30.00R
$$



USA.gov is the U.S. government's official web portal to all federal, state and local government web resources and services.